Regional Weather Roundup
Issued by NWS

Home | Current Version | Previous Version | Text Only | Print | Product List | Glossary Off
Versions: 1 2 3 4 5 6 7 8 9 10 11 12 13 14 15 16 17 18 19 20 21 22 23 24 25 26 27 28 29 30 31 32 33 34 35 36 37 38 39 40 41 42 43 44 45 46 47 48 49 50

000
ASUS43 KLSX 130107
RWRMO

WEATHER SUMMARY FOR MISSOURI
NATIONAL WEATHER SERVICE SPRINGFIELD MO
800 PM CDT SAT JUL 12 2014

NOTE: "FAIR" INDICATES FEW OR NO CLOUDS BELOW 12,000 FEET WITH NO
       SIGNIFICANT WEATHER AND/OR OBSTRUCTIONS TO VISIBILITY.
       CURRENT SKY AND/OR WEATHER CONDITIONS ARE NOT AVAILABLE FOR
       CHILLICOTHE AND FARMINGTON.

MOZ001>031-035>038-043-044-053-054-130200-
...NORTHERN AND WESTERN MISSOURI...

CITY           SKY/WX    TMP DP  RH WIND       PRES   REMARKS
KANSAS CTY INT PTCLDY    85  70  60 S10       29.95S
KANSAS C DTWN  CLEAR     90  68  48 SW13      29.94S HX  94
LEE`S SUMMIT   CLEAR     87  69  54 S9        29.97F HX  91
ST JOSEPH      CLEAR     87  72  60 S10       29.91S HX  93
CHILLICOTHE      N/A     87  74  64 S7        29.94S HX  95
KIRKSVILLE     PTCLDY    83  73  72 SW9       29.96R

$$
MOZ066>068-077>081-088>096-101>105-130200-
...SOUTHWEST MISSOURI...

CITY           SKY/WX    TMP DP  RH WIND       PRES   REMARKS
SPRINGFIELD    CLEAR     84  70  62 S8        30.05F
JOPLIN         CLEAR     86  65  49 S12       30.04F

$$
MOZ032>034-039>042-045>050-055>058-069>072-130200-
...CENTRAL MISSOURI...

CITY           SKY/WX    TMP DP  RH WIND       PRES   REMARKS
COLUMBIA       CLEAR     84  72  67 S9        29.99F
JEFFERSON CITY CLEAR     88  70  55 S6        29.98F HX  93
ROLLA          PTCLDY    84  68  58 S9        30.02F
SEDALIA        CLEAR     86  72  62 SW7       30.00S HX  92
OSAGE BEACH    CLEAR     86  70  58 SW5       30.01F HX  90

$$
MOZ051-052-059>065-130200-
...EAST CENTRAL MISSOURI...

CITY           SKY/WX    TMP DP  RH WIND       PRES   REMARKS
ST LOUIS INTL  MOCLDY    92  69  47 SW10      29.99F HX  97
SPIRIT OF STL  PTCLDY    87  71  58 S6        29.97F HX  93
ST CHARLES     PTCLDY    86  72  62 S8        29.96F HX  92

$$
MOZ072>076-082>087-097>100-106>115-130200-
...SOUTH CENTRAL AND SOUTHEAST MISSOURI...

CITY           SKY/WX    TMP DP  RH WIND       PRES   REMARKS
CAPE GIRARDEAU PTCLDY    86  73  65 S10       30.04S HX  93
FARMINGTON     CLEAR     84  72  65 S6        30.06F
POPLAR BLUFF   CLEAR     86  70  58 S6        30.03F HX  90
WEST PLAINS    CLEAR     84  71  65 S3        30.08F

$$


USA.gov is the U.S. government's official web portal to all federal, state and local government web resources and services.